Regional Weather Roundup
Issued by NWS Jackson, KY

Home | Current Version | Previous Version | Text Only | Print | Product List | Glossary On
Versions: 1 2 3 4 5 6 7 8 9 10 11 12 13 14 15 16 17 18 19 20 21 22 23 24 25 26 27 28 29 30 31 32 33 34 35 36 37 38 39 40 41 42 43 44 45 46 47 48 49 50
512
ASUS43 KJKL 250110
RWRJKL

EAST KENTUCKY HOURLY WEATHER ROUNDUP
NATIONAL WEATHER SERVICE JACKSON KY
900 PM EDT TUE MAY 24 2016

NOTE: "FAIR" INDICATES FEW OR NO CLOUDS BELOW 12,000 FEET WITH
NO SIGNIFICANT WEATHER AND/OR OBSTRUCTIONS TO VISIBILITY.

* THESE REPORTS ARE NOT UNDER NWS QUALITY CONTROL AND MAY NOT
  REPORT WEATHER SUCH AS PRECIPITATION AND FOG.

KYZ079-080-083-085-087-088-110-112-115-119-120-250200
...EASTERN KENTUCKY...

CITY           SKY/WX    TMP DP  RH WIND       PRES   REMARKS
JACKSON        CLEAR     72  48  42 CALM      30.13R
LONDON         CLEAR     70  54  56 CALM      30.13R
SOMERSET*      CLEAR     70  54  56 CALM      30.13S
MONTICELLO*    CLEAR     67  60  78 N6        30.13
WILLIAMSBURG*  CLEAR     64  50  59 CALM      30.14R
MIDDLESBORO*   CLEAR     68  52  57 W3        30.15R
HARLAN APT*      N/A     68  52  56 CALM      30.15R
HAZARD APT*    CLEAR     72  46  40 W3        30.14R
PIKE CO APT*     N/A     74  48  40 CALM      30.13S
MOREHEAD APT*  CLEAR     73  46  38 W3        30.13R
ASHLAND*       CLEAR     66  57  72 CALM      30.08R
$$

KYZ035-036-041-042-044-050-067-078-099-250200
...CENTRAL KENTUCKY...

CITY           SKY/WX    TMP DP  RH WIND       PRES   REMARKS
MT STERLING*   CLEAR     68  54  60 CALM      30.13R
FLEMING/MASON* CLEAR     70  52  52 SW6       30.12R
DANVILLE*      CLEAR     70  55  60 CALM      30.12R
RICHMOND*      CLEAR     73  48  40 CALM      30.11S
LEXINGTON      CLEAR     74  49  41 S6        30.11R
FRANKFORT      CLEAR     70  58  65 CALM      30.08S
LOUISVILLE     MOCLDY    79  54  41 S6        30.05S
LEBANON*         N/A     73  55  53 SE5       30.10S
GLASGOW*       CLOUDY    73  61  66 CALM      30.09S
BOWLING GREEN  CLOUDY    76  59  55 CALM      30.07F
$$

KYZ091>093-OHZ055-061-077-WVZ005-015-034-035-042-250200
...SOUTHERN OHIO/WEST VIRGINIA...

CITY           SKY/WX    TMP DP  RH WIND       PRES   REMARKS
COVINGTON      PTCLDY    71  51  49 S3        30.08S
COLUMBUS       PTCLDY    75  46  35 SW5       30.06S
DAYTON         PTCLDY    73  45  36 S6        30.08S
WILMINGTON     CLEAR     69  49  48 SW5       30.08S
HUNTINGTON       N/A     74  50  42 CALM      30.09R
CHARLESTON       N/A     71  52  50 CALM      30.11R
PINEVILLE*       N/A     61  52  73 MISG      30.20R
BECKLEY          N/A     62  46  55 CALM      30.18R
BLUEFIELD        N/A     65  43  44 CALM      30.20R
LOGAN CO APT*    N/A     73  50  43 CALM      30.13S
$$

VAZ002-007-008-TNZ017-027-036-066-071-250200
...SOUTHWEST VIRGINIA/EAST TENNESSEE...

CITY           SKY/WX    TMP DP  RH WIND       PRES   REMARKS
WISE*            N/A     64  43  45 CALM      30.21R
JONESVILLE*      N/A     66  55  68 CALM      30.17R
ABINGDON*        N/A     67  52  59 CALM      30.18R
BRISTOL        PTCLDY    67  50  54 CALM      30.15S
SEVIERVILLE*   CLEAR     68  50  52 CALM      30.13R
KNOXVILLE      PTCLDY    76  50  40 S6        30.11
OAK RIDGE      CLEAR     74  55  51 CALM      30.13R
CROSSVILLE     PTCLDY    68  52  56 CALM      30.16S
NASHVILLE      PTCLDY    79  54  41 CALM      30.09S
$$

...KEY TO REMARKS...
VSB - VISIBILITY IN MILES
WCI - WIND CHILL INDEX
HX  - HEAT INDEX

$$




USA.gov is the U.S. government's official web portal to all federal, state and local government web resources and services.